Regional Weather Roundup
Issued by NWS

Home | Current Version | Previous Version | Text Only | Print | Product List | Glossary On
Versions: 1 2 3 4 5 6 7 8 9 10 11 12 13 14 15 16 17 18 19 20 21 22 23 24 25 26 27
000
ASUS44 KLIX 230613
RWRLA
LOUISIANA WEATHER ROUNDUP
NATIONAL WEATHER SERVICE NEW ORLEANS LA
100 AM CDT WED AUG 23 2017

NOTE: "FAIR" INDICATES FEW OR NO CLOUDS BELOW 12,000 FEET WITH NO
      SIGNIFICANT WEATHER AND/OR OBSTRUCTIONS TO VISIBILITY.
      SKY/WX - SKY CONDITION AND SIGNIFICANT WEATHER.
      TMP - AIR TEMPERATURE.    DP   - DEWPOINT TEMPERATURE.
      RH  - RELATIVE HUMIDITY.  PRES - PRESSURE.
      HX  - HEAT INDEX.         WCI  - WIND CHILL INDEX.

*  THESE STATIONS ARE NOT NWS OR FAA STATIONS AND ARE NOT UNDER
   NWS QUALITY CONTROL.

LAZ040-048-061>063-065-066-069-230700-
SOUTHEAST LOUISIANA

CITY           SKY/WX    TMP DP  RH WIND       PRES   REMARKS
N.O. INTL ARPT MOCLDY    79  78  97 CALM      30.01R
6HR MIN TEMP:  78; 6HR MAX TEMP:  86;

N.O. LAKEFRONT CLOUDY    83  77  82 SW5       30.01R
6HR MIN TEMP:  82; 6HR MAX TEMP:  87;

N.O. DOWNTOWN* FAIR      83  77  82 CALM      30.01R
6HR MIN TEMP:  82; 6HR MAX TEMP:  87;

RESERVE*       FAIR      77  74  91 CALM      30.01R
6HR MIN TEMP:  77; 6HR MAX TEMP:  85;

SLIDELL        MOCLDY    75  74  96 N5        30.00R
6HR MIN TEMP:  75; 6HR MAX TEMP:  84;

BATON ROUGE    CLEAR     73  72  96 CALM      30.02R
6HR MIN TEMP:  73; 6HR MAX TEMP:  76;

BOOTHVILLE     MOCLDY    83  79  88 CALM      29.99R
6HR MIN TEMP:  82; 6HR MAX TEMP:  86;

BELLE CHASSE   NOT AVBL
BOGALUSA*      NOT AVBL
GALLIANO*      MOCLDY    77  74  90 CALM      29.99R
6HR MIN TEMP:  76; 6HR MAX TEMP:  84;

NEW ROADS*     FAIR      73  73  99 CALM      30.03R
6HR MIN TEMP:  73; 6HR MAX TEMP:  75;

GONZALES*      FAIR      74  73  96 CALM      30.01R
6HR MIN TEMP:  73; 6HR MAX TEMP:  79;

HAMMOND*       CLEAR     75  72  88 NW3       30.02R
HOUMA*         NOT AVBL
PORT FOURCHON* MOCLDY    86  75  70 S3        29.98R HX  95

$$

LAZ041-044-053-054-230700-
SOUTHWEST LOUISIANA

CITY           SKY/WX    TMP DP  RH WIND       PRES   REMARKS
LAKE CHARLES   MOCLDY    77  75  93 CALM      30.01R
6HR MIN TEMP:  76; 6HR MAX TEMP:  78; 6HR PCP:  0.01;

LAFAYETTE      PTCLDY    76  75  97 CALM      30.01S
6HR MIN TEMP:  75; 6HR MAX TEMP:  77; 6HR PCP: TRACE;

PATTERSON      CLOUDY    75  73  93 N6        30.02R
6HR MIN TEMP:  74; 6HR MAX TEMP:  77;

SALT POINT       N/A     76  74  93 CALM      30.00R
6HR MIN TEMP:  76; 6HR MAX TEMP:  79;

NEW IBERIA     CLEAR     74  71  91 E3        30.02R
6HR MIN TEMP:  73; 6HR MAX TEMP:  77;

CHENAULT AIRPK PTCLDY    75  74  98 CALM      30.02R
6HR MIN TEMP:  74; 6HR MAX TEMP:  76;


$$

LAZ027-028-230700-
CENTRAL LOUISIANA

CITY           SKY/WX    TMP DP  RH WIND       PRES   REMARKS
FORT POLK      PTCLDY    75  74  96 CALM      30.01F
6HR MIN TEMP:  74; 6HR MAX TEMP:  81;

ALEXANDRIA INT   N/A    N/A N/A N/A MISG      30.01R
ALEXANDRIA     CLOUDY    73  73 100 CALM      30.02F FOG
6HR MIN TEMP:  73; 6HR MAX TEMP:  76;


$$

LAZ001-002-230700-
NORTHWEST LOUISIANA

CITY           SKY/WX    TMP DP  RH WIND       PRES   REMARKS
SHREVEPORT     CLEAR     77  75  93 S5        30.00S
6HR MIN TEMP:  77; 6HR MAX TEMP:  90;

BARKSDALE AFB  CLEAR     76  76 100 CALM      30.00S
6HR MIN TEMP:  76; 6HR MAX TEMP:  90;

DTN SHREVEPORT CLEAR     82  73  74 S7        30.01R
6HR MIN TEMP:  82; 6HR MAX TEMP:  91;


$$

LAZ014-016-230700-
NORTHEAST LOUISIANA

CITY           SKY/WX    TMP DP  RH WIND       PRES   REMARKS
MONROE         CLOUDY    77  73  87 CALM      30.03F
6HR MIN TEMP:  76; 6HR MAX TEMP:  83;

TALLULAH       CLEAR     75  74  96 CALM      30.03S
6HR MIN TEMP:  75; 6HR MAX TEMP:  88;


$$





USA.gov is the U.S. government's official web portal to all federal, state and local government web resources and services.